[Date Prev][Date Next][Thread Prev][Thread Next] - [Date Index][Thread Index][Author Index]
2 Line ISS Keps 2-24
- Subject: [sarex] 2 Line ISS Keps 2-24
- From: "Dave Larsen PhD" <doc@xxxxxxxxxxx>
- Date: Wed, 24 Mar 2004 01:09:37 -0800
ISS
1 25544U 98067A 04084.18215278 .00023296 00000-0 21693-3 0 4294
2 25544 51.6290 38.8152 0010596 313.6774 241.7296 15.67194891304979
----
Via the sarex mailing list at AMSAT.ORG courtesy of AMSAT-NA.
To unsubscribe, send "unsubscribe sarex" to Majordomo@amsat.org
AMSAT Home